| time (UTC) | temp F | wind direction | speed MPH | gust MPH | rain 1hr in | rain 24hr in | rain mn in | humidity % | barometer mb |
| 20260905234503 | 83 | 292 | 1.0 | 4.0 | 0.00 | 0.00 | 0.00 | 82 | 984.6 |
| 20260905233000 | 84 | 326 | 2.0 | 6.0 | 0.00 | 0.00 | 0.00 | 82 | 984.4 |
| 20260905231600 | 84 | 293 | 1.0 | 3.0 | 0.00 | 0.00 | 0.00 | 82 | 984.2 |
| 20260905230059 | 84 | 293 | 0.0 | 3.0 | 0.00 | 0.00 | 0.00 | 81 | 984.2 |
| 20260905224613 | 86 | 302 | 2.0 | 6.0 | 0.00 | 0.00 | 0.00 | 78 | 984.2 |
| 20260905223106 | 87 | 296 | 0.0 | 1.0 | 0.00 | 0.00 | 0.00 | 78 | 984.0 |
| 20260905221558 | 87 | 296 | 1.0 | 4.0 | 0.00 | 0.00 | 0.00 | 76 | 984.0 |
| 20260905220057 | 89 | 333 | 1.0 | 4.0 | 0.00 | 0.00 | 0.00 | 76 | 983.8 |
| 20260905214559 | 88 | 333 | 0.0 | 3.0 | 0.00 | 0.00 | 0.00 | 80 | 983.8 |
| 20260905213056 | 87 | 48 | 0.0 | 5.0 | 0.00 | 0.00 | 0.00 | 81 | 983.8 |
| 20260905211556 | 86 | 13 | 1.0 | 4.0 | 0.00 | 0.00 | 0.00 | 81 | 983.5 |
| 20260905210056 | 87 | 303 | 1.0 | 4.0 | 0.00 | 0.00 | 0.00 | 80 | 983.6 |
| 20260905204554 | 85 | 270 | 1.0 | 4.0 | 0.00 | 0.00 | 0.00 | 86 | 983.6 |
| 20260905203054 | 89 | 300 | 4.0 | 10.0 | 0.00 | 0.00 | 0.00 | 74 | 983.6 |
| 20260905201601 | 89 | 244 | 3.0 | 6.0 | 0.00 | 0.00 | 0.00 | 75 | 983.7 |
| 20260905200052 | 89 | 227 | 3.0 | 10.0 | 0.00 | 0.00 | 0.00 | 76 | 983.9 |
| 20260905194550 | 89 | 249 | 4.0 | 9.0 | 0.00 | 0.00 | 0.00 | 76 | 984.0 |
| 20260905193048 | 89 | 259 | 4.0 | 9.0 | 0.00 | 0.00 | 0.00 | 75 | 984.4 |
| 20260905191550 | 89 | 248 | 3.0 | 8.0 | 0.00 | 0.00 | 0.00 | 77 | 984.3 |
| 20260905190100 | 88 | 238 | 4.0 | 8.0 | 0.00 | 0.00 | 0.00 | 75 | 984.5 |
| 20260905184559 | 88 | 280 | 4.0 | 7.0 | 0.00 | 0.00 | 0.00 | 76 | 984.7 |
| 20260905183043 | 88 | 246 | 4.0 | 8.0 | 0.00 | 0.00 | 0.00 | 76 | 984.7 |
| 20260905181543 | 87 | 242 | 5.0 | 10.0 | 0.00 | 0.00 | 0.00 | 75 | 984.9 |
| 20260905180041 | 87 | 250 | 4.0 | 8.0 | 0.00 | 0.00 | 0.00 | 74 | 985.1 |
| 20260905174545 | 87 | 158 | 1.0 | 5.0 | 0.00 | 0.00 | 0.00 | 76 | 985.1 |
| 20260905173040 | 86 | 268 | 4.0 | 9.0 | 0.00 | 0.00 | 0.00 | 76 | 985.3 |
| 20260905171536 | 86 | 231 | 3.0 | 7.0 | 0.00 | 0.00 | 0.00 | 73 | 985.6 |
| 20260905170035 | 86 | 232 | 3.0 | 8.0 | 0.00 | 0.00 | 0.00 | 73 | 985.7 |
| 20260905164534 | 85 | 153 | 2.0 | 7.0 | 0.00 | 0.01 | 0.00 | 76 | 985.9 |
| 20260905163033 | 86 | 158 | 0.0 | 7.0 | 0.00 | 0.01 | 0.00 | 76 | 986.2 |
| 20260905161530 | 85 | 267 | 1.0 | 7.0 | 0.00 | 0.01 | 0.00 | 77 | 986.2 |
| 20260905160030 | 84 | 152 | 1.0 | 5.0 | 0.00 | 0.01 | 0.00 | 77 | 986.0 |
| 20260905154525 | 83 | 158 | 3.0 | 7.0 | 0.00 | 0.01 | 0.00 | 77 | 986.1 |
| 20260905153022 | 82 | 153 | 2.0 | 8.0 | 0.00 | 0.01 | 0.00 | 78 | 986.0 |
| 20260905151519 | 81 | 70 | 1.0 | 8.0 | 0.00 | 0.01 | 0.00 | 80 | 985.6 |
| 20260905150015 | 79 | 148 | 1.0 | 7.0 | 0.00 | 0.01 | 0.00 | 83 | 986.0 |
| 20260905144512 | 78 | 158 | 5.0 | 8.0 | 0.00 | 0.01 | 0.00 | 84 | 985.9 |
| 20260905143011 | 76 | 224 | 2.0 | 11.0 | 0.00 | 0.01 | 0.00 | 86 | 985.7 |
| 20260905141508 | 76 | 126 | 5.0 | 9.0 | 0.00 | 0.01 | 0.00 | 86 | 985.7 |
| 20260905140006 | 76 | 153 | 4.0 | 11.0 | 0.00 | 0.01 | 0.00 | 88 | 985.7 |
| 20260905134505 | 74 | 152 | 3.0 | 11.0 | 0.00 | 0.01 | 0.00 | 89 | 985.6 |
| 20260905133004 | 73 | 141 | 8.0 | 13.0 | 0.00 | 0.01 | 0.00 | 89 | 985.4 |
| 20260905131503 | 74 | 134 | 7.0 | 13.0 | 0.00 | 0.01 | 0.00 | 88 | 985.6 |
| 20260905130002 | 73 | 148 | 4.0 | 10.0 | 0.00 | 0.01 | 0.00 | 90 | 985.8 |
| 20260905124502 | 72 | 143 | 5.0 | 9.0 | 0.00 | 0.01 | 0.00 | 92 | 985.8 |
| 20260905123109 | 71 | 139 | 4.0 | 8.0 | 0.00 | 0.01 | 0.00 | 94 | 985.8 |
| 20260905121559 | 70 | 127 | 3.0 | 6.0 | 0.00 | 0.01 | 0.00 | 95 | 986.0 |
| 20260905120056 | 0 | 0.0 | 0.0 | 0.00 | 0.01 | 0.00 | 986.1 | ||
| 20260905114552 | 0 | 0.0 | 0.0 | 0.00 | 0.01 | 0.00 | 986.0 | ||
| 20260905113046 | 0 | 0.0 | 0.0 | 0.00 | 0.01 | 0.00 | 985.7 | ||
| 20260905111552 | 0 | 0.0 | 0.0 | 0.00 | 0.01 | 0.00 | 985.5 | ||
| 20260905110038 | 0 | 0.0 | 0.0 | 0.00 | 0.01 | 0.00 | 985.6 | ||
| 20260905104533 | 0 | 0.0 | 0.0 | 0.00 | 0.01 | 0.00 | 985.6 | ||
| 20260905103032 | 0 | 101 | 4.0 | 10.0 | 0.00 | 0.01 | 0.00 | 93 | 985.6 |
| 20260905101531 | 74 | 79 | 4.0 | 10.0 | 0.00 | 0.01 | 0.00 | 100 | 985.6 |
| 20260905100024 | 74 | 74 | 0.0 | 7.0 | 0.00 | 0.01 | 0.00 | 100 | 985.1 |
| 20260905094523 | 73 | 136 | 0.0 | 0.0 | 0.00 | 0.01 | 0.00 | 99 | 984.9 |
| 20260905093021 | 73 | 136 | 0.0 | 0.0 | 0.00 | 0.01 | 0.00 | 99 | 984.8 |
| 20260905091521 | 73 | 136 | 0.0 | 0.0 | 0.00 | 0.01 | 0.00 | 98 | 984.8 |
| 20260905090024 | 74 | 136 | 0.0 | 0.0 | 0.00 | 0.01 | 0.00 | 98 | 984.7 |
| 20260905084549 | 74 | 146 | 0.0 | 0.0 | 0.00 | 0.01 | 0.00 | 98 | 984.8 |
| 20260905083021 | 74 | 146 | 0.0 | 0.0 | 0.00 | 0.01 | 0.00 | 97 | 984.8 |
| 20260905081518 | 75 | 146 | 0.0 | 0.0 | 0.00 | 0.01 | 0.00 | 97 | 984.7 |
| 20260905080017 | 75 | 311 | 0.0 | 5.0 | 0.00 | 0.01 | 0.00 | 98 | 984.6 |
| 20260905074517 | 75 | 252 | 0.0 | 1.0 | 0.00 | 0.01 | 0.00 | 98 | 984.4 |
| 20260905073018 | 75 | 252 | 0.0 | 0.0 | 0.00 | 0.01 | 0.00 | 97 | 984.5 |
| 20260905071517 | 75 | 229 | 1.0 | 4.0 | 0.00 | 0.01 | 0.00 | 97 | 984.2 |
| 20260905070015 | 75 | 231 | 0.0 | 2.0 | 0.00 | 0.01 | 0.00 | 98 | 984.1 |
| 20260905064514 | 75 | 248 | 2.0 | 5.0 | 0.00 | 0.01 | 0.00 | 98 | 983.8 |
| 20260905063011 | 75 | 245 | 1.0 | 2.0 | 0.00 | 0.01 | 0.00 | 99 | 984.1 |
| 20260905061509 | 74 | 233 | 1.0 | 3.0 | 0.00 | 0.01 | 0.00 | 100 | 984.4 |
| 20260905060007 | 74 | 150 | 0.0 | 0.0 | 0.00 | 0.01 | 0.00 | 100 | 984.6 |
| 20260905054505 | 74 | 150 | 0.0 | 0.0 | 0.00 | 0.01 | 0.00 | 99 | 984.8 |
| 20260905053002 | 74 | 150 | 0.0 | 0.0 | 0.00 | 0.01 | 0.00 | 100 | 984.9 |
| 20260905051502 | 74 | 150 | 0.0 | 0.0 | 0.00 | 0.01 | 0.00 | 100 | 984.8 |
| 20260905050100 | 74 | 150 | 0.0 | 0.0 | 0.00 | 0.01 | 0.00 | 99 | 985.1 |
| 20260905044558 | 74 | 150 | 0.0 | 0.0 | 0.00 | 0.01 | 0.00 | 99 | 985.2 |
| 20260905043057 | 75 | 150 | 0.0 | 0.0 | 0.00 | 0.01 | 0.00 | 99 | 985.2 |
| 20260905043026 | 75 | 150 | 0.0 | 0.0 | 0.00 | 0.01 | 0.00 | 99 | 985.2 |
| 20260905041553 | 75 | 150 | 0.0 | 0.0 | 0.00 | 0.01 | 0.00 | 98 | 985.3 |
| 20260905040050 | 76 | 150 | 0.0 | 0.0 | 0.00 | 0.01 | 0.00 | 99 | 985.4 |
| 20260905034551 | 76 | 150 | 0.0 | 0.0 | 0.00 | 0.01 | 0.01 | 98 | 985.4 |
| 20260905033053 | 77 | 150 | 0.0 | 0.0 | 0.00 | 0.01 | 0.01 | 97 | 985.6 |
| 20260905031550 | 77 | 150 | 0.0 | 0.0 | 0.00 | 0.01 | 0.01 | 97 | 985.5 |
| 20260905030051 | 78 | 150 | 0.0 | 0.0 | 0.00 | 0.01 | 0.01 | 96 | 985.4 |
| 20260905024615 | 78 | 149 | 0.0 | 0.0 | 0.00 | 0.01 | 0.01 | 96 | 985.5 |
| 20260905023050 | 79 | 150 | 0.0 | 0.0 | 0.00 | 0.01 | 0.01 | 95 | 985.3 |
| 20260905021547 | 79 | 150 | 0.0 | 2.0 | 0.00 | 0.01 | 0.01 | 95 | 985.3 |
| 20260905020049 | 79 | 150 | 0.0 | 0.0 | 0.00 | 0.01 | 0.01 | 95 | 985.2 |
| 20260905014545 | 80 | 150 | 0.0 | 1.0 | 0.00 | 0.01 | 0.01 | 94 | 985.1 |
| 20260905013041 | 80 | 150 | 0.0 | 0.0 | 0.00 | 0.01 | 0.01 | 94 | 985.0 |
| 20260905011552 | 80 | 150 | 0.0 | 0.0 | 0.00 | 0.01 | 0.01 | 93 | 984.8 |
| 20260905010039 | 81 | 149 | 0.0 | 0.0 | 0.00 | 0.01 | 0.01 | 92 | 984.9 |
| 20260905004548 | 82 | 150 | 0.0 | 1.0 | 0.00 | 0.01 | 0.01 | 91 | 984.7 |
| 20260905003038 | 83 | 150 | 0.0 | 2.0 | 0.00 | 0.01 | 0.01 | 90 | 984.8 |
| 20260905001537 | 84 | 151 | 1.0 | 3.0 | 0.00 | 0.01 | 0.01 | 89 | 984.8 |
| 20260905000037 | 86 | 99 | 0.0 | 1.0 | 0.00 | 0.01 | 0.01 | 87 | 984.8 |